Location: Newark
(13.8117°N, 3.6025°W)
Time: 08:44:03
(UTC+00:00)

Explorer 11/Cluster Stage 4 - Pass Details

Date: 02 September 2019
Orbit: 467 x 1260 km, 28.8° (Epoch: 19 September)

Event Time Altitude Azimuth Distance (km) Brightness Sun altitude
Rises 13:10:43 0° 291° (WNW) 4,086 10.4 74.9°
Reaches altitude 10° 13:13:34 10° 288° (WNW) 3,176 10.0 74.3°
Maximum altitude 13:21:35 61° 210° (SSW) 1,405 9.6 72.4°
Drops below altitude 10° 13:29:30 10° 132° (SE) 3,131 9.7 70.6°
Sets 13:32:18 0° 129° (SE) 4,026 10.1 69.9°
